Weather History for KFLP - January, 2007

Change the Weather History Date:

Monday, January 29, 2007

  Actual Average Record
Temperature  
Mean Temperature 32 °F -  
Max Temperature 50 °F 46 °F 75 °F (2002)
Min Temperature 15 °F 27 °F 6 °F (2014)
Degree Days  
Heating Degree Days 32    
Moisture  
Dew Point 19 °F    
Average Humidity 61    
Maximum Humidity 93    
Minimum Humidity 37    
Precipitation  
Precipitation 0.00 in - - ()
Sea Level Pressure  
Sea Level Pressure 30.12 in    
Wind  
Wind Speed 3 mph (West)    
Max Wind Speed 18 mph    
Max Gust Speed 23 mph    
Visibility 10 miles    
Events      
Averages and records for this station are not official NWS values.
T = Trace of Precipitation, MM = Missing Value Source: NWS Daily Summary

Daily Weather History Graph

Daily Weather History Graph

Search for Another Location

Airport or City:

Trip Planner

Search our weather history database for the weather conditions in past years. The results will help you decide how hot, cold, wet, or windy it might be!

Date:

Astronomy

Jan. 29, 2007 Rise Set
Actual Time 7:14 AM CST 5:33 PM CST
Civil Twilight 6:46 AM CST 6:00 PM CST
Nautical Twilight 6:15 AM CST 6:31 PM CST
Astronomical Twilight 5:45 AM CST 7:01 PM CST
Moon 1:56 PM CST (1/29) 4:41 AM CST (1/29)
Length of Visible Light 11h 13m
Length of Day
10h 19m
Waxing Gibbous, 87% of the Moon is Illuminated
Jan 29
Waxing Gibbous
Feb 1
Full
Feb 10
Last Quarter
Feb 17
New
Feb 24
First Quarter

Hourly Weather History & Observations

Time (CST) Temp. Windchill Dew Point Humidity Pressure Visibility Wind Dir Wind Speed Gust Speed Precip Events Conditions
12:15 AM 17.6 °F - 10.4 °F 73% 30.22 in 10.0 mi Calm Calm - N/A   Clear
12:35 AM 17.6 °F - 10.4 °F 73% 30.22 in 9.0 mi Calm Calm - N/A   Clear
12:55 AM 17.6 °F - 10.4 °F 73% 30.22 in 10.0 mi Calm Calm - N/A   Clear
1:15 AM 17.6 °F 10.7 °F 10.4 °F 73% 30.21 in 10.0 mi ESE 4.6 mph - N/A   Clear
1:35 AM 17.6 °F 10.7 °F 10.4 °F 73% 30.20 in 10.0 mi ESE 4.6 mph - N/A   Clear
1:55 AM 15.8 °F - 10.4 °F 79% 30.21 in 10.0 mi Calm Calm - N/A   Clear
2:15 AM 15.8 °F - 10.4 °F 79% 30.20 in 10.0 mi Calm Calm - N/A   Clear
2:35 AM 15.8 °F - 12.2 °F 86% 30.20 in 10.0 mi Calm Calm - N/A   Clear
2:55 AM 17.6 °F - 10.4 °F 73% 30.20 in 10.0 mi Calm Calm - N/A   Clear
3:15 AM 17.6 °F - 8.6 °F 68% 30.20 in 10.0 mi Calm Calm - N/A   Clear
3:35 AM 17.6 °F - 10.4 °F 73% 30.18 in 10.0 mi Calm Calm - N/A   Clear
3:55 AM 17.6 °F 12.3 °F 12.2 °F 79% 30.16 in 10.0 mi East 3.5 mph - N/A   Clear
4:15 AM 17.6 °F - 12.2 °F 79% 30.15 in 10.0 mi Calm Calm - N/A   Clear
4:35 AM 17.6 °F - 14.0 °F 86% 30.14 in 10.0 mi Calm Calm - N/A   Clear
4:55 AM 17.6 °F - 10.4 °F 73% 30.15 in 10.0 mi Calm Calm - N/A   Clear
5:15 AM 17.6 °F - 12.2 °F 79% 30.14 in 10.0 mi Calm Calm - N/A   Clear
5:35 AM 17.6 °F - 12.2 °F 79% 30.14 in 10.0 mi Calm Calm - N/A   Clear
5:55 AM 17.6 °F - 12.2 °F 79% 30.14 in 10.0 mi Calm Calm - N/A   Clear
6:15 AM 17.6 °F - 12.2 °F 79% 30.14 in 10.0 mi Calm Calm - N/A   Clear
6:35 AM 17.6 °F - 10.4 °F 73% 30.14 in 10.0 mi Calm Calm - N/A   Clear
6:55 AM 15.8 °F - 12.2 °F 86% 30.13 in 10.0 mi Calm Calm - N/A   Clear
7:15 AM 17.6 °F - 15.8 °F 93% 30.13 in 10.0 mi Calm Calm - N/A   Clear
7:35 AM 19.4 °F 14.3 °F 15.8 °F 86% 30.14 in 10.0 mi ENE 3.5 mph - N/A   Clear
7:55 AM 21.2 °F - 17.6 °F 86% 30.14 in 10.0 mi Calm Calm - N/A   Clear
8:15 AM 24.8 °F - 19.4 °F 80% 30.14 in 10.0 mi Calm Calm - N/A   Clear
8:35 AM 26.6 °F - 17.6 °F 69% 30.14 in 10.0 mi Calm Calm - N/A   Clear
8:55 AM 28.4 °F - 19.4 °F 69% 30.15 in 10.0 mi Calm Calm - N/A   Clear
9:15 AM 30.2 °F - 21.2 °F 69% 30.14 in 10.0 mi Calm Calm - N/A   Clear
9:35 AM 33.8 °F 29.6 °F 21.2 °F 60% 30.15 in 10.0 mi WNW 4.6 mph - N/A   Clear
9:55 AM 37.4 °F 32.8 °F 21.2 °F 52% 30.14 in 10.0 mi WSW 5.8 mph - N/A   Clear
10:15 AM 39.2 °F 33.6 °F 21.2 °F 49% 30.14 in 10.0 mi SW 8.1 mph - N/A   Clear
10:35 AM 41.0 °F 35.8 °F 21.2 °F 45% 30.14 in 10.0 mi SW 8.1 mph - N/A   Clear
10:55 AM 42.8 °F 37.5 °F 23.0 °F 46% 30.13 in 10.0 mi SW 9.2 mph - N/A   Clear
11:15 AM 44.6 °F 38.1 °F 24.8 °F 46% 30.12 in 10.0 mi West 13.8 mph 19.6 mph N/A   Clear
11:35 AM 46.4 °F 41.9 °F 24.8 °F 43% 30.11 in 10.0 mi WSW 9.2 mph 17.3 mph N/A   Clear
11:55 AM 48.2 °F - 24.8 °F 40% 30.11 in 10.0 mi West 18.4 mph 23.0 mph N/A   Clear
12:15 PM 48.2 °F - 24.8 °F 40% 30.10 in 10.0 mi West 16.1 mph 23.0 mph N/A   Clear
12:35 PM 48.2 °F - 24.8 °F 40% 30.09 in 10.0 mi West 9.2 mph 23.0 mph N/A   Clear
12:55 PM 50.0 °F - 24.8 °F 37% 30.07 in 10.0 mi WSW 15.0 mph - N/A   Clear
1:15 PM 48.2 °F - 24.8 °F 40% 30.06 in 10.0 mi West 17.3 mph - N/A   Clear
1:35 PM 50.0 °F - 24.8 °F 37% 30.06 in 10.0 mi West 9.2 mph 16.1 mph N/A   Partly Cloudy
1:55 PM 50.0 °F - 26.6 °F 40% 30.05 in 10.0 mi WNW 16.1 mph 19.6 mph N/A   Partly Cloudy
2:15 PM 50.0 °F - 26.6 °F 40% 30.04 in 10.0 mi West 16.1 mph 19.6 mph N/A   Scattered Clouds
2:35 PM 50.0 °F - 24.8 °F 37% 30.04 in 10.0 mi WNW 12.7 mph - N/A   Mostly Cloudy
2:55 PM 48.2 °F - 24.8 °F 40% 30.04 in 10.0 mi West 11.5 mph - N/A   Scattered Clouds
3:15 PM 48.2 °F - 24.8 °F 40% 30.03 in 10.0 mi WNW 11.5 mph - N/A   Clear
3:35 PM 48.2 °F - 26.6 °F 43% 30.03 in 10.0 mi WNW 15.0 mph - N/A   Clear
3:55 PM 48.2 °F - 24.8 °F 40% 30.04 in 10.0 mi WNW 10.4 mph - N/A   Clear
4:15 PM 46.4 °F 42.9 °F 24.8 °F 43% 30.04 in 10.0 mi WNW 6.9 mph - N/A   Clear
4:35 PM 46.4 °F 42.4 °F 24.8 °F 43% 30.04 in 10.0 mi WNW 8.1 mph - N/A   Clear
4:55 PM 46.4 °F 43.5 °F 24.8 °F 43% 30.04 in 10.0 mi WNW 5.8 mph - N/A   Clear
5:15 PM 44.6 °F 43.1 °F 24.8 °F 46% 30.04 in 10.0 mi WNW 3.5 mph - N/A   Clear
5:35 PM 44.6 °F 41.4 °F 24.8 °F 46% 30.04 in 10.0 mi WNW 5.8 mph - N/A   Clear
5:55 PM 42.8 °F 39.3 °F 24.8 °F 49% 30.05 in 10.0 mi WNW 5.8 mph - N/A   Clear
6:15 PM 42.8 °F 40.1 °F 24.8 °F 49% 30.06 in 10.0 mi WNW 4.6 mph - N/A   Clear
6:35 PM 42.8 °F 39.3 °F 24.8 °F 49% 30.07 in 10.0 mi WNW 5.8 mph - N/A   Clear
6:55 PM 41.0 °F 37.1 °F 24.8 °F 53% 30.08 in 10.0 mi WNW 5.8 mph - N/A   Clear
7:15 PM 39.2 °F 35.9 °F 24.8 °F 56% 30.08 in 10.0 mi West 4.6 mph - N/A   Clear
7:35 PM 39.2 °F 34.2 °F 24.8 °F 56% 30.08 in 10.0 mi WNW 6.9 mph - N/A   Clear
7:55 PM 39.2 °F 34.2 °F 24.8 °F 56% 30.09 in 10.0 mi WNW 6.9 mph - N/A   Clear
8:15 PM 39.2 °F 34.2 °F 24.8 °F 56% 30.10 in 10.0 mi WNW 6.9 mph - N/A   Clear
8:35 PM 39.2 °F 33.0 °F 24.8 °F 56% 30.11 in 10.0 mi WNW 9.2 mph - N/A   Clear
8:55 PM 39.2 °F 34.2 °F 24.8 °F 56% 30.12 in 10.0 mi WNW 6.9 mph - N/A   Clear
9:15 PM 37.4 °F 32.8 °F 23.0 °F 56% 30.12 in 10.0 mi West 5.8 mph - N/A   Clear
9:35 PM 37.4 °F 34.9 °F 21.2 °F 52% 30.12 in 10.0 mi West 3.5 mph - N/A   Clear
9:55 PM 35.6 °F - 21.2 °F 56% 30.12 in 10.0 mi Calm Calm - N/A   Clear
10:15 PM 33.8 °F 30.8 °F 21.2 °F 60% 30.13 in 10.0 mi West 3.5 mph - N/A   Clear
10:35 PM 33.8 °F 30.8 °F 21.2 °F 60% 30.13 in 10.0 mi WNW 3.5 mph - N/A   Clear
10:55 PM 33.8 °F 29.6 °F 21.2 °F 60% 30.13 in 10.0 mi WNW 4.6 mph - N/A   Clear
11:15 PM 33.8 °F 30.8 °F 21.2 °F 60% 30.13 in 10.0 mi WNW 3.5 mph - N/A   Clear
11:35 PM 33.8 °F 27.7 °F 19.4 °F 56% 30.14 in 10.0 mi WNW 6.9 mph - N/A   Clear
11:55 PM 35.6 °F 29.9 °F 19.4 °F 52% 30.15 in 10.0 mi NW 6.9 mph - N/A   Clear